Time,TemperatureF,DewpointF,PressureIn,WindDirection,WindDirectionDegrees,WindSpeedMPH,WindSpeedGustMPH,Humidity,HourlyPrecipIn,Conditions,Clouds,dailyrainin,SolarRadiationWatts/m^2,SoftwareType,DateUTC
2013-07-23 00:07:00,67.1,64.0,29.67,SE,139,6.0,-999.0,89,-99.99,,,0.00,0,weatherlink.com 1.10,2013-07-23 05:07:00,
2013-07-23 00:22:00,66.8,64.0,29.67,South,178,5.0,-999.0,89,-99.99,,,0.00,0,weatherlink.com 1.10,2013-07-23 05:22:00,
2013-07-23 00:37:00,66.4,64.0,29.70,WNW,296,0.0,-999.0,90,-99.99,,,0.00,0,weatherlink.com 1.10,2013-07-23 05:37:00,
2013-07-23 00:52:00,66.4,64.0,29.71,NNW,340,0.0,-999.0,91,-99.99,,,0.00,0,weatherlink.com 1.10,2013-07-23 05:52:00,
2013-07-23 01:07:00,66.3,64.0,29.70,NNW,334,0.0,-999.0,92,-99.99,,,0.00,0,weatherlink.com 1.10,2013-07-23 06:07:00,
2013-07-23 01:22:00,66.1,64.0,29.71,West,266,0.0,-999.0,93,-99.99,,,0.00,0,weatherlink.com 1.10,2013-07-23 06:22:00,
2013-07-23 01:37:00,65.8,64.0,29.73,WSW,244,0.0,-999.0,93,-99.99,,,0.00,0,weatherlink.com 1.10,2013-07-23 06:37:00,
2013-07-23 01:52:00,65.5,64.0,29.71,WSW,246,0.0,-999.0,93,-99.99,,,0.00,0,weatherlink.com 1.10,2013-07-23 06:52:00,
2013-07-23 02:07:00,65.2,63.0,29.71,West,263,0.0,-999.0,93,-99.99,,,0.00,0,weatherlink.com 1.10,2013-07-23 07:07:00,
2013-07-23 02:22:00,64.7,63.0,29.70,West,263,0.0,-999.0,94,-99.99,,,0.00,0,weatherlink.com 1.10,2013-07-23 07:22:00,
2013-07-23 02:37:00,64.2,63.0,29.70,SW,231,5.0,-999.0,94,-99.99,,,0.00,0,weatherlink.com 1.10,2013-07-23 07:37:00,
2013-07-23 02:52:00,64.3,63.0,29.70,WSW,253,5.0,-999.0,94,-99.99,,,0.00,0,weatherlink.com 1.10,2013-07-23 07:52:00,
2013-07-23 03:07:00,64.0,62.0,29.69,SW,229,4.0,-999.0,94,-99.99,,,0.00,0,weatherlink.com 1.10,2013-07-23 08:07:00,
2013-07-23 03:22:00,64.0,63.0,29.70,WSW,245,6.0,-999.0,95,-99.99,,,0.00,0,weatherlink.com 1.10,2013-07-23 08:22:00,
2013-07-23 03:37:00,64.3,63.0,29.70,WSW,257,7.0,-999.0,95,-99.99,,,0.00,0,weatherlink.com 1.10,2013-07-23 08:37:00,
2013-07-23 03:52:00,64.7,63.0,29.71,WSW,256,4.0,-999.0,94,-99.99,,,0.00,0,weatherlink.com 1.10,2013-07-23 08:52:00,
2013-07-23 04:07:00,64.5,63.0,29.70,West,263,3.0,-999.0,94,-99.99,,,0.00,0,weatherlink.com 1.10,2013-07-23 09:07:00,
2013-07-23 04:22:00,64.7,63.0,29.71,West,261,4.0,-999.0,93,-99.99,,,0.00,0,weatherlink.com 1.10,2013-07-23 09:22:00,
2013-07-23 04:37:00,64.7,63.0,29.71,West,273,4.0,-999.0,93,-99.99,,,0.00,0,weatherlink.com 1.10,2013-07-23 09:37:00,
2013-07-23 04:52:00,64.5,63.0,29.71,West,273,3.0,-999.0,93,-99.99,,,0.00,0,weatherlink.com 1.10,2013-07-23 09:52:00,
2013-07-23 05:07:00,64.7,63.0,29.72,West,271,6.0,-999.0,93,-99.99,,,0.00,0,weatherlink.com 1.10,2013-07-23 10:07:00,
2013-07-23 05:22:00,64.8,63.0,29.72,West,269,6.0,-999.0,93,-99.99,,,0.00,0,weatherlink.com 1.10,2013-07-23 10:22:00,
2013-07-23 05:37:00,65.0,63.0,29.72,West,278,4.0,-999.0,93,-99.99,,,0.00,0,weatherlink.com 1.10,2013-07-23 10:37:00,
2013-07-23 05:52:00,65.0,63.0,29.72,West,275,4.0,-999.0,93,-99.99,,,0.00,7,weatherlink.com 1.10,2013-07-23 10:52:00,
2013-07-23 06:07:00,65.2,63.0,29.72,WNW,290,5.0,-999.0,93,-99.99,,,0.00,14,weatherlink.com 1.10,2013-07-23 11:07:00,
2013-07-23 06:22:00,65.3,64.0,29.72,WNW,290,3.0,-999.0,94,-99.99,,,0.00,37,weatherlink.com 1.10,2013-07-23 11:22:00,
2013-07-23 06:38:00,65.8,64.0,29.71,WNW,287,4.0,-999.0,94,-99.99,,,0.00,65,weatherlink.com 1.10,2013-07-23 11:38:00,
2013-07-23 06:53:00,66.1,64.0,29.73,WNW,300,4.0,-999.0,94,-99.99,,,0.00,116,weatherlink.com 1.10,2013-07-23 11:53:00,
2013-07-23 07:08:00,67.4,66.0,29.72,WNW,300,4.0,-999.0,94,-99.99,,,0.00,156,weatherlink.com 1.10,2013-07-23 12:08:00,
2013-07-23 07:23:00,68.3,66.0,29.73,WNW,300,3.0,-999.0,93,-99.99,,,0.00,218,weatherlink.com 1.10,2013-07-23 12:23:00,
2013-07-23 07:38:00,69.1,66.0,29.75,WNW,303,12.0,-999.0,90,-99.99,,,0.00,251,weatherlink.com 1.10,2013-07-23 12:38:00,
2013-07-23 07:53:00,69.9,66.0,29.76,NNW,335,7.0,-999.0,88,-99.99,,,0.00,299,weatherlink.com 1.10,2013-07-23 12:53:00,
2013-07-23 08:08:00,70.9,66.0,29.76,NNW,329,7.0,-999.0,85,-99.99,,,0.00,343,weatherlink.com 1.10,2013-07-23 13:08:00,
2013-07-23 08:23:00,71.5,66.0,29.77,NNW,334,9.0,-999.0,82,-99.99,,,0.00,406,weatherlink.com 1.10,2013-07-23 13:23:00,
2013-07-23 08:38:00,71.8,65.0,29.77,NNE,19,11.0,-999.0,80,-99.99,,,0.00,315,weatherlink.com 1.10,2013-07-23 13:38:00,
2013-07-23 08:53:00,71.8,65.0,29.77,NNW,334,13.0,-999.0,79,-99.99,,,0.00,547,weatherlink.com 1.10,2013-07-23 13:53:00,
2013-07-23 09:08:00,71.8,65.0,29.76,NW,311,4.0,-999.0,79,-99.99,,,0.00,360,weatherlink.com 1.10,2013-07-23 14:08:00,
2013-07-23 09:23:00,72.0,64.0,29.78,NNW,340,14.0,-999.0,77,-99.99,,,0.00,422,weatherlink.com 1.10,2013-07-23 14:23:00,
2013-07-23 09:38:00,72.3,64.0,29.78,NNW,334,10.0,-999.0,76,-99.99,,,0.00,517,weatherlink.com 1.10,2013-07-23 14:38:00,
2013-07-23 09:53:00,73.3,64.0,29.79,NNW,342,9.0,-999.0,73,-99.99,,,0.00,670,weatherlink.com 1.10,2013-07-23 14:53:00,
2013-07-23 10:08:00,74.2,65.0,29.80,North,5,10.0,-999.0,72,-99.99,,,0.00,591,weatherlink.com 1.10,2013-07-23 15:08:00,
2013-07-23 10:23:00,74.6,64.0,29.80,NNW,337,13.0,-999.0,70,-99.99,,,0.00,715,weatherlink.com 1.10,2013-07-23 15:23:00,
2013-07-23 10:38:00,74.4,64.0,29.80,NNE,30,9.0,-999.0,70,-99.99,,,0.00,775,weatherlink.com 1.10,2013-07-23 15:38:00,
2013-07-23 10:53:00,75.1,65.0,29.80,NNW,340,6.0,-999.0,70,-99.99,,,0.00,793,weatherlink.com 1.10,2013-07-23 15:53:00,
2013-07-23 11:08:00,75.6,64.0,29.80,NW,319,7.0,-999.0,68,-99.99,,,0.00,875,weatherlink.com 1.10,2013-07-23 16:08:00,
2013-07-23 11:23:00,75.8,64.0,29.81,NW,323,7.0,-999.0,67,-99.99,,,0.00,443,weatherlink.com 1.10,2013-07-23 16:23:00,
2013-07-23 11:38:00,75.6,63.0,29.82,North,351,11.0,-999.0,64,-99.99,,,0.00,795,weatherlink.com 1.10,2013-07-23 16:38:00,
2013-07-23 11:53:00,75.6,63.0,29.82,NNW,330,10.0,-999.0,66,-99.99,,,0.00,459,weatherlink.com 1.10,2013-07-23 16:53:00,
2013-07-23 12:08:00,75.3,63.0,29.82,NNW,327,12.0,-999.0,66,-99.99,,,0.00,898,weatherlink.com 1.10,2013-07-23 17:08:00,
2013-07-23 12:23:00,76.0,62.0,29.83,NNW,342,14.0,-999.0,63,-99.99,,,0.00,766,weatherlink.com 1.10,2013-07-23 17:23:00,
2013-07-23 12:38:00,75.6,61.0,29.82,NNW,329,12.0,-999.0,61,-99.99,,,0.00,661,weatherlink.com 1.10,2013-07-23 17:38:00,
2013-07-23 13:08:00,76.0,61.0,29.83,NW,316,6.0,-999.0,59,-99.99,,,0.00,944,weatherlink.com 1.10,2013-07-23 18:08:00,
2013-07-23 13:23:00,76.8,60.0,29.83,NW,313,11.0,-999.0,56,-99.99,,,0.00,840,weatherlink.com 1.10,2013-07-23 18:23:00,
2013-07-23 13:39:00,76.5,61.0,29.82,North,355,11.0,-999.0,60,-99.99,,,0.00,529,weatherlink.com 1.10,2013-07-23 18:39:00,
2013-07-23 14:09:00,74.9,61.0,29.83,North,5,6.0,-999.0,62,-99.99,,,0.00,346,weatherlink.com 1.10,2013-07-23 19:09:00,
2013-07-23 14:54:00,73.7,59.0,29.83,North,351,9.0,-999.0,61,-99.99,,,0.00,283,weatherlink.com 1.10,2013-07-23 19:54:00,
2013-07-23 15:09:00,73.7,60.0,29.83,NNE,15,3.0,-999.0,62,-99.99,,,0.00,336,weatherlink.com 1.10,2013-07-23 20:09:00,
2013-07-23 15:24:00,73.7,59.0,29.82,NNW,331,4.0,-999.0,60,-99.99,,,0.00,343,weatherlink.com 1.10,2013-07-23 20:24:00,
2013-07-23 15:39:00,73.9,59.0,29.82,North,355,13.0,-999.0,61,-99.99,,,0.00,318,weatherlink.com 1.10,2013-07-23 20:39:00,
2013-07-23 16:09:00,74.2,60.0,29.82,NNW,333,3.0,-999.0,62,-99.99,,,0.00,322,weatherlink.com 1.10,2013-07-23 21:09:00,
2013-07-23 16:24:00,74.6,60.0,29.81,NNW,348,4.0,-999.0,60,-99.99,,,0.00,431,weatherlink.com 1.10,2013-07-23 21:24:00,
2013-07-23 16:39:00,75.3,59.0,29.81,North,11,10.0,-999.0,58,-99.99,,,0.00,666,weatherlink.com 1.10,2013-07-23 21:39:00,
2013-07-23 16:54:00,75.8,59.0,29.81,NNW,345,9.0,-999.0,56,-99.99,,,0.00,271,weatherlink.com 1.10,2013-07-23 21:54:00,
2013-07-23 17:09:00,75.8,59.0,29.81,NNE,26,8.0,-999.0,57,-99.99,,,0.00,536,weatherlink.com 1.10,2013-07-23 22:09:00,
2013-07-23 17:24:00,75.3,59.0,29.82,North,360,5.0,-999.0,58,-99.99,,,0.00,221,weatherlink.com 1.10,2013-07-23 22:24:00,
2013-07-23 17:39:00,74.4,59.0,29.82,North,355,4.0,-999.0,60,-99.99,,,0.00,141,weatherlink.com 1.10,2013-07-23 22:39:00,
2013-07-23 17:54:00,74.4,60.0,29.81,NNW,346,1.0,-999.0,62,-99.99,,,0.00,193,weatherlink.com 1.10,2013-07-23 22:54:00,
2013-07-23 18:09:00,75.3,61.0,29.81,NNW,342,0.0,-999.0,62,-99.99,,,0.00,202,weatherlink.com 1.10,2013-07-23 23:09:00,
2013-07-23 18:24:00,75.4,61.0,29.81,NNW,342,0.0,-999.0,62,-99.99,,,0.00,123,weatherlink.com 1.10,2013-07-23 23:24:00,
2013-07-23 18:39:00,75.3,61.0,29.81,NNW,342,0.0,-999.0,62,-99.99,,,0.00,102,weatherlink.com 1.10,2013-07-23 23:39:00,
2013-07-23 18:54:00,74.0,61.0,29.81,NNW,345,2.0,-999.0,65,-99.99,,,0.00,69,weatherlink.com 1.10,2013-07-23 23:54:00,
2013-07-23 19:09:00,73.2,62.0,29.81,NNW,345,0.0,-999.0,67,-99.99,,,0.00,104,weatherlink.com 1.10,2013-07-24 00:09:00,
2013-07-23 19:24:00,73.7,62.0,29.81,NNW,337,4.0,-999.0,67,-99.99,,,0.00,79,weatherlink.com 1.10,2013-07-24 00:24:00,
2013-07-23 19:39:00,73.2,61.0,29.81,NNW,338,0.0,-999.0,66,-99.99,,,0.00,30,weatherlink.com 1.10,2013-07-24 00:39:00,
2013-07-23 19:54:00,72.1,61.0,29.81,NNW,338,0.0,-999.0,68,-99.99,,,0.00,23,weatherlink.com 1.10,2013-07-24 00:54:00,
2013-07-23 20:09:00,71.1,61.0,29.82,NNW,341,0.0,-999.0,71,-99.99,,,0.00,14,weatherlink.com 1.10,2013-07-24 01:09:00,
2013-07-23 20:24:00,70.1,61.0,29.83,NNW,339,2.0,-999.0,73,-99.99,,,0.00,7,weatherlink.com 1.10,2013-07-24 01:24:00,
2013-07-23 20:54:00,68.6,61.0,29.83,NNW,338,3.0,-999.0,76,-99.99,,,0.00,0,weatherlink.com 1.10,2013-07-24 01:54:00,
2013-07-23 21:09:00,67.8,61.0,29.85,NNW,338,3.0,-999.0,78,-99.99,,,0.00,0,weatherlink.com 1.10,2013-07-24 02:09:00,
2013-07-23 21:24:00,67.1,60.0,29.85,North,360,3.0,-999.0,78,-99.99,,,0.00,0,weatherlink.com 1.10,2013-07-24 02:24:00,
2013-07-23 21:39:00,66.4,60.0,29.86,North,360,0.0,-999.0,79,-99.99,,,0.00,0,weatherlink.com 1.10,2013-07-24 02:39:00,
2013-07-23 21:54:00,65.5,60.0,29.87,NNE,27,4.0,-999.0,81,-99.99,,,0.00,0,weatherlink.com 1.10,2013-07-24 02:54:00,
2013-07-23 22:09:00,64.8,60.0,29.87,NNE,27,2.0,-999.0,83,-99.99,,,0.00,0,weatherlink.com 1.10,2013-07-24 03:09:00,
2013-07-23 22:24:00,64.5,59.0,29.88,NNE,28,3.0,-999.0,83,-99.99,,,0.00,0,weatherlink.com 1.10,2013-07-24 03:24:00,
2013-07-23 22:39:00,64.5,59.0,29.89,NNE,32,0.0,-999.0,82,-99.99,,,0.00,0,weatherlink.com 1.10,2013-07-24 03:39:00,
2013-07-23 23:09:00,63.4,58.0,29.89,NNE,32,0.0,-999.0,82,-99.99,,,0.00,0,weatherlink.com 1.10,2013-07-24 04:09:00,
2013-07-23 23:24:00,62.9,58.0,29.90,NE,34,0.0,-999.0,83,-99.99,,,0.00,0,weatherlink.com 1.10,2013-07-24 04:24:00,
2013-07-23 23:39:00,62.6,57.0,29.91,NE,46,4.0,-999.0,83,-99.99,,,0.00,0,weatherlink.com 1.10,2013-07-24 04:39:00,
2013-07-23 23:54:00,61.8,57.0,29.91,NE,51,0.0,-999.0,84,-99.99,,,0.00,0,weatherlink.com 1.10,2013-07-24 04:54:00,